Back to catalog

SL-8 DEB *

AliveLEO
NORAD 14801·DEBRIS·🇷🇺 Russia

Launched Nov 28, 1975 from Plesetsk Cosmodrome

Loading…

Next Passes (next 24 hours)

TLE

FreshSource: Space-Track

Epoch: Sep 14, 2026, 06:00 UTC

1 14801U 75112D   26257.25059509  .00001287  00000-0  23135-3 0  9992
2 14801  74.0568 298.9263 0004723 144.9362 332.3068 14.67746430501362

Track SL-8 DEB * in real time with AllMySat

Download on the App Store